Back to catalog

SITRO-AIS-19

AliveNavigationSSO
NORAD 61759·PAYLOAD·🇷🇺 Russia
This satellite name has not been confirmed by official sources yet.

Launched Nov 4, 2024 from Vostochny Cosmodrome

Loading…

Next Passes (next 24 hours)

TLE

FreshSource: Space-Track

Epoch: Sep 14, 2026, 14:35 UTC

1 61759U 24199AA  26257.60772252  .00001994  00000-0  17210-3 0  9993
2 61759  97.3181  91.6480 0007055 122.4587 237.7320 14.98289489148529

Track SITRO-AIS-19 in real time with AllMySat

Download on the App Store